Location: Cahas Mountain Overlook
(37.0833°N, 80.1000°W)
Time: 17:29:38
(UTC-05:00)

Vanguard 3 - Pass Details

Date: 09 December 2023
Orbit: 508 x 3239 km, 33.4° (Epoch: 23 February)

Event Time Altitude Azimuth Distance (km) Brightness Sun altitude
Rises 21:37:01 0° 253° (WSW) 6,847 12.3 -53.7°
Reaches altitude 10° 21:42:05 10° 251° (WSW) 5,538 11.7 -54.7°
Enters shadow 21:50:57 37° 243° (WSW) 3,164 10.1 -56.4°
